Abbeville, LA

3:34 AM CDT on June 29, 2017 (GMT -0500)
Abbeville

Weather History for KIYA - March, 2013

Change the Weather History Date:

Wednesday, March 27, 2013

  Actual Average (KARA) Record (KARA)
Temperature  
Mean Temperature 50 °F -  
Max Temperature 65 °F 71 °F 85 °F (2011)
Min Temperature 36 °F 53 °F 29 °F (1955)
Degree Days  
Heating Degree Days 14    
Moisture  
Dew Point 35 °F    
Average Humidity 61    
Maximum Humidity 93    
Minimum Humidity 29    
Precipitation  
Precipitation 0.00 in - - ()
Sea Level Pressure  
Sea Level Pressure 30.36 in    
Wind  
Wind Speed 2 mph (SE)    
Max Wind Speed 12 mph    
Max Gust Speed -    
Visibility 10 miles    
Events      
Averages and records for this station are not official NWS values.
T = Trace of Precipitation, MM = Missing Value Source: NWS Daily Summary

Daily Weather History Graph

Daily Weather History Graph

Search for Another Location

Airport or City:

Trip Planner

Search our weather history database for the weather conditions in past years. The results will help you decide how hot, cold, wet, or windy it might be!

Date:

Astronomy

Mar. 27, 2013 Rise Set
Actual Time 7:03 AM CDT 7:24 PM CDT
Civil Twilight 6:39 AM CDT 7:48 PM CDT
Nautical Twilight 6:11 AM CDT 8:16 PM CDT
Astronomical Twilight 5:43 AM CDT 8:44 PM CDT
Moon 8:02 PM CDT (3/27) 6:58 AM CDT (3/27)
Length of Visible Light 13h 08m
Length of Day
12h 20m
Full, 100% of the Moon is Illuminated
Mar 27
Full
Apr 2
Last Quarter
Apr 10
New
Apr 18
First Quarter
Apr 25
Full

Hourly Weather History & Observations

Time (CDT) Temp. Windchill Dew Point Humidity Pressure Visibility Wind Dir Wind Speed Gust Speed Precip Events Conditions
12:15 AM 39.6 °F - 33.3 °F 78% 30.38 in 10.0 mi Calm Calm - N/A   Clear
12:55 AM 41.0 °F - 32.0 °F 70% 30.38 in 10.0 mi Calm Calm - N/A   Clear
1:15 AM 37.8 °F - 34.5 °F 88% 30.38 in 10.0 mi Calm Calm - N/A   Clear
1:35 AM 37.9 °F - 32.7 °F 81% 30.38 in 10.0 mi Calm Calm - N/A   Clear
1:55 AM 38.3 °F - 32.2 °F 79% 30.38 in 10.0 mi Calm Calm - N/A   Clear
2:15 AM 38.3 °F - 34.0 °F 84% 30.38 in 10.0 mi Calm Calm - N/A   Clear
2:35 AM 36.5 °F - 34.3 °F 92% 30.37 in 10.0 mi Calm Calm - N/A   Clear
2:55 AM 36.9 °F - 34.5 °F 91% 30.37 in 10.0 mi Calm Calm - N/A   Clear
3:15 AM 37.8 °F - 34.2 °F 87% 30.37 in 10.0 mi Calm Calm - N/A   Clear
3:35 AM 38.3 °F - 33.8 °F 84% 30.37 in 10.0 mi Calm Calm - N/A   Clear
3:55 AM 38.3 °F 35.9 °F 33.8 °F 84% 30.37 in 10.0 mi ENE 3.5 mph - N/A   Clear
4:15 AM 37.8 °F - 33.6 °F 85% 30.37 in 10.0 mi Calm Calm - N/A   Clear
4:55 AM 37.4 °F - 33.8 °F 87% 30.37 in 10.0 mi Calm Calm - N/A   Clear
5:15 AM 37.9 °F 35.5 °F 33.4 °F 84% 30.37 in 10.0 mi NE 3.5 mph - N/A   Clear
5:55 AM 37.8 °F 35.3 °F 33.8 °F 86% 30.38 in 10.0 mi ENE 3.5 mph - N/A   Clear
6:15 AM 37.4 °F - 33.8 °F 87% 30.39 in 10.0 mi Calm Calm - N/A   Clear
6:35 AM 36.5 °F 33.9 °F 33.4 °F 89% 30.39 in 10.0 mi ENE 3.5 mph - N/A   Clear
6:55 AM 36.9 °F 34.3 °F 33.3 °F 87% 30.39 in 10.0 mi ENE 3.5 mph - N/A   Clear
7:15 AM 36.7 °F - 33.6 °F 89% 30.40 in 10.0 mi Calm Calm - N/A   Clear
7:35 AM 37.4 °F - 34.0 °F 87% 30.41 in 10.0 mi Calm Calm - N/A   Clear
7:55 AM 39.4 °F - 36.0 °F 88% 30.42 in 10.0 mi Calm Calm - N/A   Clear
8:15 AM 43.3 °F - 38.3 °F 82% 30.43 in 10.0 mi Calm Calm - N/A   Clear
8:35 AM 47.3 °F - 37.6 °F 69% 30.44 in 10.0 mi East 6.9 mph - N/A   Clear
8:55 AM 48.4 °F - 37.2 °F 65% 30.44 in 10.0 mi East 9.2 mph - N/A   Clear
9:15 AM 50.7 °F - 36.7 °F 59% 30.45 in 10.0 mi East 6.9 mph - N/A   Clear
9:35 AM 52.0 °F - 34.9 °F 52% 30.45 in 10.0 mi ESE 6.9 mph - N/A   Clear
9:55 AM 53.6 °F - 34.9 °F 49% 30.45 in 10.0 mi East 5.8 mph - N/A   Clear
10:15 AM 55.2 °F - 33.1 °F 43% 30.45 in 10.0 mi ENE 5.8 mph - N/A   Clear
10:35 AM 55.9 °F - 31.6 °F 40% 30.45 in 10.0 mi ENE 4.6 mph - N/A   Clear
10:55 AM 56.1 °F - 31.5 °F 39% 30.44 in 10.0 mi NE 5.8 mph - N/A   Clear
11:15 AM 57.0 °F - 30.2 °F 36% 30.44 in 10.0 mi NE 4.6 mph - N/A   Clear
11:35 AM 58.3 °F - 31.1 °F 36% 30.43 in 10.0 mi Calm Calm - N/A   Clear
11:55 AM 57.9 °F - 30.2 °F 35% 30.43 in 10.0 mi Calm Calm - N/A   Clear
12:15 PM 59.4 °F - 30.6 °F 34% 30.42 in 10.0 mi North 4.6 mph - N/A   Clear
12:35 PM 59.9 °F - 29.8 °F 32% 30.42 in 10.0 mi Calm Calm - N/A   Clear
12:55 PM 60.4 °F - 30.7 °F 33% 30.40 in 10.0 mi East 5.8 mph - N/A   Clear
1:15 PM 60.3 °F - 30.0 °F 32% 30.39 in 10.0 mi Calm Calm - N/A   Clear
1:35 PM 62.6 °F - 31.8 °F 32% 30.39 in 10.0 mi East 3.5 mph - N/A   Clear
1:55 PM 62.6 °F - 32.4 °F 32% 30.37 in 10.0 mi North 5.8 mph - N/A   Clear
2:15 PM 62.6 °F - 31.3 °F 31% 30.36 in 10.0 mi SSW 3.5 mph - N/A   Clear
2:35 PM 63.9 °F - 31.8 °F 30% 30.34 in 10.0 mi WSW 5.8 mph - N/A   Clear
2:55 PM 65.1 °F - 32.2 °F 29% 30.34 in 10.0 mi Calm Calm - N/A   Clear
3:15 PM 65.1 °F - 32.4 °F 29% 30.33 in 10.0 mi ENE 4.6 mph - N/A   Clear
3:55 PM 64.8 °F - 36.0 °F 34% 30.31 in 10.0 mi South 5.8 mph - N/A   Clear
4:15 PM 64.8 °F - 36.0 °F 34% 30.31 in 10.0 mi South 8.1 mph - N/A   Clear
4:35 PM 64.4 °F - 34.5 °F 33% 30.31 in 10.0 mi SSE 4.6 mph - N/A   Clear
4:55 PM 64.2 °F - 35.6 °F 35% 30.31 in 10.0 mi South 4.6 mph - N/A   Clear
5:15 PM 64.6 °F - 35.1 °F 33% 30.31 in 10.0 mi SW 4.6 mph - N/A   Clear
5:35 PM 64.0 °F - 36.3 °F 36% 30.30 in 10.0 mi SSE 5.8 mph - N/A   Clear
5:55 PM 63.3 °F - 36.1 °F 36% 30.29 in 10.0 mi SSE 6.9 mph - N/A   Clear
6:15 PM 62.4 °F - 37.8 °F 40% 30.29 in 10.0 mi SSE 11.5 mph - N/A   Clear
6:35 PM 58.8 °F - 39.2 °F 48% 30.28 in 10.0 mi South 9.2 mph - N/A   Clear
6:55 PM 56.8 °F - 39.6 °F 52% 30.28 in 10.0 mi South 9.2 mph - N/A   Clear
7:15 PM 55.4 °F - 39.6 °F 55% 30.28 in 10.0 mi South 6.9 mph - N/A   Clear
7:35 PM 53.8 °F - 40.1 °F 60% 30.28 in 10.0 mi South 5.8 mph - N/A   Clear
7:55 PM 52.7 °F - 40.1 °F 62% 30.29 in 10.0 mi South 5.8 mph - N/A   Clear
8:15 PM 51.1 °F - 40.1 °F 66% 30.29 in 10.0 mi South 4.6 mph - N/A   Clear
8:35 PM 51.1 °F - 40.5 °F 67% 30.29 in 10.0 mi South 5.8 mph - N/A   Clear
8:55 PM 50.9 °F - 40.6 °F 68% 30.29 in 10.0 mi SSW 4.6 mph - N/A   Clear
9:15 PM 50.9 °F - 40.3 °F 67% 30.30 in 10.0 mi SSW 4.6 mph - N/A   Clear
9:35 PM 50.7 °F - 40.3 °F 67% 30.31 in 10.0 mi SSW 4.6 mph - N/A   Clear
9:55 PM 48.7 °F - 40.5 °F 73% 30.31 in 10.0 mi Calm Calm - N/A   Clear
10:15 PM 48.0 °F - 41.0 °F 77% 30.32 in 10.0 mi Calm Calm - N/A   Clear
10:35 PM 47.3 °F - 41.4 °F 80% 30.32 in 10.0 mi Calm Calm - N/A   Clear
10:55 PM 47.7 °F - 41.5 °F 79% 30.32 in 10.0 mi Calm Calm - N/A   Clear
11:15 PM 45.9 °F - 41.9 °F 86% 30.32 in 10.0 mi Calm Calm - N/A   Clear
11:35 PM 44.6 °F - 42.8 °F 93% 30.32 in 10.0 mi Calm Calm - N/A   Clear
11:55 PM 44.2 °F - 41.7 °F 91% 30.31 in 10.0 mi Calm Calm - N/A   Clear